Location: Newark
(34.6283°N, 36.0776°E)
Time: 06:08:06
(UTC+00:00)

A-11 Canister half - Pass Details

Date: 20 September 2019
Orbit: 1527 x 1682 km, 47.3° (Epoch: 15 October)

Event Time Altitude Azimuth Distance (km) Brightness Sun altitude
Rises 00:14:09 0° 214° (SW) 4,664 - -37.3°
Reaches altitude 10° 00:17:14 10° 210° (SSW) 3,688 - -36.8°
Exits shadow 00:25:12 54° 157° (SSE) 1,827 9.2 -35.4°
Maximum altitude 00:26:13 56° 135° (SE) 1,792 9.2 -35.2°
Drops below altitude 10° 00:35:26 10° 60° (ENE) 3,780 11.9 -33.6°
Sets 00:38:37 0° 57° (ENE) 4,788 12.7 -33.0°
